Content
SEND FEEDBACK

Daily
Averages
Monthly
Summary
United States of America

BATTLE GROUND, WASHINGTON


Home > North America > United States > Washington
Elevation: 301 feet     Latitude: 45 46N     Longitude: 122 32W

WEATHER
 
SELECT A DAY
Number of Records: 189,002;   Date Range: 9/18/96 - 9/18/14
 
SHARE

PRINT THIS DATA

[ ← Previous Day ]
WEATHER ALMANAC - JANUARY 3, 2013
[ Next Day → ]
[ °C ]   °F
Weather ElementAverageHighLow
Temperature32.3 °F39.9 °F (11:53 am)23 °F (3:53 am)
Dewpoint23.2 °F30.9 °F (10:53 pm)19 °F (3:53 am)
Humidity70.9 %89 % (10:53 pm)49 % (11:53 am)
Barometer30.21 in30.28 in (11:53 pm)30.17 in (3:53 pm)
Wind Speed5.5 mph13.8 mph (12:53 pm)
Wind Gust20.7 mph (1:53 pm)
Weather ElementAverage
Visibility10 mi
Wind DirectionE (95.2 °)

Weather ElementTotal
Precipitation---
Heating Degree Days33.6 (Base 65)
Averaged from 23 records on January 3, 2013
WEATHER CONDITIONS BREAKOUT
WIND DIRECTION BREAKOUT
WEATHER BY HOUR - JANUARY 3, 2013
[ °C ]   °F
Local TimeTemperatureDewpointHumidityBarometerVisibilityWind DirectionWind SpeedGust SpeedPrecipitationEventsConditions
1:53 AM25.0 °F19.9 °F81 %30.24 in10.0 miCalmClear
2:53 AM24.1 °F19.9 °F84 %30.23 in10.0 miCalmClear
3:53 AM23.0 °F19.0 °F85 %30.22 in10.0 miCalmClear
4:53 AM23.0 °F19.0 °F85 %30.21 in10.0 miCalmClear
5:53 AM23.0 °F19.0 °F85 %30.20 in10.0 miCalmClear
6:53 AM25.0 °F19.9 °F81 %30.19 in10.0 miCalmClear
7:53 AM23.0 °F19.0 °F85 %30.19 in10.0 miWNW (300°)3.5 mphClear
8:53 AM28.9 °F21.9 °F75 %30.20 in10.0 miCalmClear
9:53 AM35.1 °F25.0 °F67 %30.21 in10.0 miNNE (20°)3.5 mphClear
10:53 AM37.0 °F21.0 °F52 %30.21 in10.0 miNW (320°)3.5 mphClear
11:53 AM39.9 °F21.9 °F49 %30.19 in10.0 miCalmClear
12:53 PM39.0 °F21.9 °F50 %30.19 in10.0 miESE (120°)13.8 mphOvercast
1:53 PM39.0 °F21.0 °F49 %30.19 in10.0 miESE (120°)10.4 mph20.7 mphOvercast
2:53 PM39.0 °F23.0 °F53 %30.18 in10.0 miESE (120°)9.2 mphOvercast
3:53 PM37.9 °F23.0 °F55 %30.17 in10.0 miESE (120°)12.7 mph17.3 mphOvercast
4:53 PM37.0 °F23.0 °F57 %30.19 in10.0 miESE (120°)8.1 mph16.1 mph0.00 inRainLight Rain
5:53 PM37.0 °F24.1 °F59 %30.19 in10.0 miSE (130°)9.2 mph0.00 inOvercast
6:53 PM37.0 °F26.1 °F65 %30.21 in10.0 miSE (130°)8.1 mphOvercast
7:53 PM35.1 °F28.0 °F76 %30.22 in10.0 miSouth (180°)9.2 mphOvercast
8:53 PM34.0 °F28.0 °F79 %30.23 in10.0 miSE (130°)5.8 mph19.6 mph0.00 inRainLight Rain
9:53 PM34.0 °F30.0 °F85 %30.26 in10.0 miSE (140°)4.6 mph0.00 inOvercast
10:53 PM34.0 °F30.9 °F89 %30.27 in10.0 miESE (120°)12.7 mphOvercast
11:53 PM34.0 °F30.0 °F85 %30.28 in10.0 miESE (120°)11.5 mphOvercast
Hourly data recorded from KVUO, located miles away from Battle Ground, Washington







STORIES FROM OUR PARTNERS